User: anonymous   Login
Location: Rounton
(54.4000°N, 1.3500°W)
Time: 11:03:09
(UTC+00:00)
Language:

SR - Orbit

View from above orbital plane
View from above orbital plane
View from above satellite
View from above satellite

Ground track
Ground track

The orbit data is extracted from the following two-line orbital elements,

1 00046U 60007B   24052.90285561  .00000909  00000-0  19386-3 0  9990
2 00046  66.6911  10.3468 0207519 209.8982 149.0145 14.51478622334010
Epoch (UTC): 21 February 2024 21:40:06
Eccentricity: 0.0207519
inclination: 66.6911°
perigee height: 573 km
apogee height: 868 km
right ascension of ascending node: 10.3468°
argument of perigee: 209.8982°
revolutions per day: 14.51478622
mean anomaly at epoch: 149.0145°
orbit number at epoch: 33401

The dashed part of the orbit path shows where the satellite is in the earth's shadow,  

DLR